Time,TemperatureF,DewpointF,PressureIn,WindDirection,WindDirectionDegrees,WindSpeedMPH,WindSpeedGustMPH,Humidity,HourlyPrecipIn,Conditions,Clouds,dailyrainin,SolarRadiationWatts/m^2,SoftwareType,DateUTC
2013-05-15 00:02:00,78.0,54.0,-100.00,SW,218,7.0,13.0,44,0.00,,,0.00,0.000000,,2013-05-15 05:02:00,
2013-05-15 00:42:00,77.0,55.0,-100.00,WSW,243,6.0,15.0,47,0.00,,,0.00,0.000000,,2013-05-15 05:42:00,
2013-05-15 00:52:00,77.0,55.0,-100.00,WSW,243,6.0,15.0,47,0.00,,,0.00,0.000000,,2013-05-15 05:52:00,
2013-05-15 01:02:00,77.0,55.0,-100.00,WSW,243,6.0,15.0,47,0.00,,,0.00,0.000000,,2013-05-15 06:02:00,
2013-05-15 01:11:00,77.0,55.0,-100.00,WSW,243,6.0,15.0,47,0.00,,,0.00,0.000000,,2013-05-15 06:11:00,
2013-05-15 01:32:00,76.0,47.0,-100.00,WNW,287,8.0,20.0,36,0.00,,,0.00,0.000000,,2013-05-15 06:32:00,
2013-05-15 01:42:00,76.0,47.0,-100.00,WNW,287,8.0,20.0,36,0.00,,,0.00,0.000000,,2013-05-15 06:42:00,
2013-05-15 01:52:00,76.0,47.0,-100.00,WNW,287,8.0,20.0,36,0.00,,,0.00,0.000000,,2013-05-15 06:52:00,
2013-05-15 02:01:00,76.0,47.0,-100.00,WNW,287,8.0,20.0,36,0.00,,,0.00,0.000000,,2013-05-15 07:01:00,
2013-05-15 02:11:00,76.0,47.0,-100.00,WNW,287,8.0,20.0,36,0.00,,,0.00,0.000000,,2013-05-15 07:11:00,
2013-05-15 02:12:00,72.0,41.0,-100.00,WNW,288,7.0,15.0,33,0.00,,,0.00,0.000000,,2013-05-15 07:12:00,
2013-05-15 02:32:00,72.0,41.0,-100.00,WNW,288,7.0,15.0,33,0.00,,,0.00,0.000000,,2013-05-15 07:32:00,
2013-05-15 02:42:00,72.0,41.0,-100.00,WNW,288,7.0,15.0,33,0.00,,,0.00,0.000000,,2013-05-15 07:42:00,
2013-05-15 02:52:00,72.0,41.0,-100.00,WNW,288,7.0,15.0,33,0.00,,,0.00,0.000000,,2013-05-15 07:52:00,
2013-05-15 03:02:00,72.0,41.0,-100.00,WNW,288,7.0,15.0,33,0.00,,,0.00,0.000000,,2013-05-15 08:02:00,
2013-05-15 03:32:00,67.0,37.0,-100.00,West,272,3.0,11.0,33,0.00,,,0.00,0.000000,,2013-05-15 08:32:00,
2013-05-15 03:42:00,67.0,37.0,-100.00,West,272,3.0,11.0,33,0.00,,,0.00,0.000000,,2013-05-15 08:42:00,
2013-05-15 03:53:00,67.0,37.0,-100.00,West,272,3.0,11.0,33,0.00,,,0.00,0.000000,,2013-05-15 08:53:00,
2013-05-15 04:01:00,67.0,37.0,-100.00,West,272,3.0,11.0,33,0.00,,,0.00,0.000000,,2013-05-15 09:01:00,
2013-05-15 04:11:00,67.0,37.0,-100.00,West,272,3.0,11.0,33,0.00,,,0.00,0.000000,,2013-05-15 09:11:00,
2013-05-15 04:12:00,64.0,37.0,-100.00,West,270,4.0,10.0,37,0.00,,,0.00,0.000000,,2013-05-15 09:12:00,
2013-05-15 04:33:00,64.0,37.0,-100.00,West,270,4.0,10.0,37,0.00,,,0.00,0.000000,,2013-05-15 09:33:00,
2013-05-15 04:42:00,64.0,37.0,-100.00,West,270,4.0,10.0,37,0.00,,,0.00,0.000000,,2013-05-15 09:42:00,
2013-05-15 04:53:00,64.0,37.0,-100.00,West,270,4.0,10.0,37,0.00,,,0.00,0.000000,,2013-05-15 09:53:00,
2013-05-15 05:02:00,64.0,37.0,-100.00,West,270,4.0,10.0,37,0.00,,,0.00,0.000000,,2013-05-15 10:02:00,
2013-05-15 05:32:00,64.0,41.0,-100.00,WNW,287,4.0,11.0,43,0.00,,,0.00,0.000000,,2013-05-15 10:32:00,
2013-05-15 05:43:00,64.0,41.0,-100.00,WNW,287,4.0,11.0,43,0.00,,,0.00,0.000000,,2013-05-15 10:43:00,
2013-05-15 05:52:00,64.0,41.0,-100.00,WNW,287,4.0,11.0,43,0.00,,,0.00,0.000000,,2013-05-15 10:52:00,
2013-05-15 06:09:00,64.0,41.0,-100.00,WNW,287,4.0,11.0,43,0.00,,,0.00,0.000000,,2013-05-15 11:09:00,
2013-05-15 06:12:00,63.0,44.0,-100.00,WNW,291,6.0,16.0,49,0.00,,,0.00,19.000000,,2013-05-15 11:12:00,
2013-05-15 06:39:00,63.0,44.0,-100.00,WNW,291,6.0,16.0,49,0.00,,,0.00,19.000000,,2013-05-15 11:39:00,
2013-05-15 06:50:00,63.0,44.0,-100.00,WNW,291,6.0,16.0,49,0.00,,,0.00,19.000000,,2013-05-15 11:50:00,
2013-05-15 07:08:00,63.0,44.0,-100.00,WNW,291,6.0,16.0,49,0.00,,,0.00,19.000000,,2013-05-15 12:08:00,
2013-05-15 07:12:00,65.0,46.0,-100.00,NW,307,12.0,20.0,51,0.00,,,0.00,143.000000,,2013-05-15 12:12:00,
2013-05-15 07:38:00,65.0,46.0,-100.00,NW,307,12.0,20.0,51,0.00,,,0.00,143.000000,,2013-05-15 12:38:00,
2013-05-15 07:49:00,65.0,46.0,-100.00,NW,307,12.0,20.0,51,0.00,,,0.00,143.000000,,2013-05-15 12:49:00,
2013-05-15 07:57:00,65.0,46.0,-100.00,NW,307,12.0,20.0,51,0.00,,,0.00,143.000000,,2013-05-15 12:57:00,
2013-05-15 08:09:00,65.0,46.0,-100.00,NW,307,12.0,20.0,51,0.00,,,0.00,143.000000,,2013-05-15 13:09:00,
2013-05-15 09:12:00,67.0,46.0,-100.00,NW,310,10.0,20.0,47,-99.99,,,0.00,489.000000,,2013-05-15 14:12:00,
2013-05-15 09:51:00,67.0,46.0,-100.00,NW,310,10.0,20.0,47,-99.99,,,0.00,489.000000,,2013-05-15 14:51:00,
2013-05-15 09:59:00,67.0,46.0,-100.00,NW,310,10.0,20.0,47,-99.99,,,0.00,489.000000,,2013-05-15 14:59:00,
2013-05-15 10:08:00,67.0,46.0,-100.00,NW,310,10.0,20.0,47,-99.99,,,0.00,489.000000,,2013-05-15 15:08:00,
2013-05-15 10:12:00,70.0,45.0,-100.00,NW,324,9.0,20.0,41,0.00,,,0.00,673.000000,,2013-05-15 15:12:00,
2013-05-15 10:49:00,70.0,45.0,-100.00,NW,324,9.0,20.0,41,0.00,,,0.00,673.000000,,2013-05-15 15:49:00,
2013-05-15 11:01:00,70.0,45.0,-100.00,NW,324,9.0,20.0,41,0.00,,,0.00,673.000000,,2013-05-15 16:01:00,
2013-05-15 11:12:00,72.0,41.0,-100.00,NW,323,12.0,22.0,32,0.00,,,0.00,807.000000,,2013-05-15 16:12:00,
2013-05-15 11:59:00,72.0,41.0,-100.00,NW,323,12.0,22.0,32,0.00,,,0.00,807.000000,,2013-05-15 16:59:00,
2013-05-15 12:09:00,72.0,41.0,-100.00,NW,323,12.0,22.0,32,0.00,,,0.00,807.000000,,2013-05-15 17:09:00,
2013-05-15 12:49:00,74.0,38.0,-100.00,North,350,11.0,22.0,27,0.00,,,0.00,803.000000,,2013-05-15 17:49:00,
2013-05-15 12:59:00,74.0,38.0,-100.00,North,350,11.0,22.0,27,0.00,,,0.00,803.000000,,2013-05-15 17:59:00,
2013-05-15 13:06:00,74.0,38.0,-100.00,North,350,11.0,22.0,27,0.00,,,0.00,803.000000,,2013-05-15 18:06:00,
2013-05-15 13:12:00,74.0,38.0,-100.00,WNW,286,8.0,18.0,27,0.00,,,0.00,778.000000,,2013-05-15 18:12:00,
2013-05-15 13:49:00,74.0,38.0,-100.00,WNW,286,8.0,18.0,27,0.00,,,0.00,778.000000,,2013-05-15 18:49:00,
2013-05-15 13:57:00,74.0,38.0,-100.00,WNW,286,8.0,18.0,27,0.00,,,0.00,778.000000,,2013-05-15 18:57:00,
2013-05-15 14:08:00,74.0,38.0,-100.00,WNW,286,8.0,18.0,27,0.00,,,0.00,778.000000,,2013-05-15 19:08:00,
2013-05-15 14:49:00,72.0,38.0,-100.00,WNW,283,9.0,15.0,29,0.00,,,0.00,295.000000,,2013-05-15 19:49:00,
2013-05-15 14:57:00,72.0,38.0,-100.00,WNW,283,9.0,15.0,29,0.00,,,0.00,295.000000,,2013-05-15 19:57:00,
2013-05-15 15:12:00,72.0,41.0,-100.00,West,275,6.0,14.0,32,0.00,,,0.00,204.000000,,2013-05-15 20:12:00,
2013-05-15 15:47:00,72.0,41.0,-100.00,West,275,6.0,14.0,32,0.00,,,0.00,204.000000,,2013-05-15 20:47:00,
2013-05-15 15:58:00,72.0,41.0,-100.00,West,275,6.0,14.0,32,0.00,,,0.00,204.000000,,2013-05-15 20:58:00,
2013-05-15 16:07:00,72.0,41.0,-100.00,West,275,6.0,14.0,32,0.00,,,0.00,204.000000,,2013-05-15 21:07:00,
2013-05-15 16:12:00,75.0,37.0,-100.00,WNW,290,8.0,16.0,25,0.00,,,-99.99,642.000000,,2013-05-15 21:12:00,
2013-05-15 16:42:00,75.0,37.0,-100.00,WNW,290,8.0,16.0,25,0.00,,,-99.99,642.000000,,2013-05-15 21:42:00,
2013-05-15 16:53:00,75.0,37.0,-100.00,WNW,290,8.0,16.0,25,0.00,,,-99.99,642.000000,,2013-05-15 21:53:00,
2013-05-15 17:00:00,75.0,37.0,-100.00,WNW,290,8.0,16.0,25,0.00,,,-99.99,642.000000,,2013-05-15 22:00:00,
2013-05-15 17:09:00,75.0,37.0,-100.00,WNW,290,8.0,16.0,25,0.00,,,-99.99,642.000000,,2013-05-15 22:09:00,
2013-05-15 17:12:00,76.0,36.0,-100.00,NW,318,8.0,16.0,23,0.00,,,0.00,576.000000,,2013-05-15 22:12:00,
2013-05-15 17:52:00,76.0,36.0,-100.00,NW,318,8.0,16.0,23,0.00,,,0.00,576.000000,,2013-05-15 22:52:00,
2013-05-15 17:59:00,76.0,36.0,-100.00,NW,318,8.0,16.0,23,0.00,,,0.00,576.000000,,2013-05-15 22:59:00,
2013-05-15 18:07:00,76.0,36.0,-100.00,NW,318,8.0,16.0,23,0.00,,,0.00,576.000000,,2013-05-15 23:07:00,
2013-05-15 18:12:00,76.0,38.0,-100.00,WNW,292,8.0,15.0,25,0.00,,,-99.99,317.000000,,2013-05-15 23:12:00,
2013-05-15 18:40:00,76.0,38.0,-100.00,WNW,292,8.0,15.0,25,0.00,,,-99.99,317.000000,,2013-05-15 23:40:00,
2013-05-15 18:50:00,76.0,38.0,-100.00,WNW,292,8.0,15.0,25,0.00,,,-99.99,317.000000,,2013-05-15 23:50:00,
2013-05-15 19:05:00,76.0,38.0,-100.00,WNW,292,8.0,15.0,25,0.00,,,-99.99,317.000000,,2013-05-16 00:05:00,
2013-05-15 20:12:00,70.0,36.0,-100.00,WSW,253,1.0,9.0,29,-99.99,,,0.00,59.000000,,2013-05-16 01:12:00,
2013-05-15 20:49:00,70.0,36.0,-100.00,WSW,253,1.0,9.0,29,-99.99,,,0.00,59.000000,,2013-05-16 01:49:00,
2013-05-15 21:00:00,70.0,36.0,-100.00,WSW,253,1.0,9.0,29,-99.99,,,0.00,59.000000,,2013-05-16 02:00:00,
2013-05-15 21:07:00,70.0,36.0,-100.00,WSW,253,1.0,9.0,29,-99.99,,,0.00,59.000000,,2013-05-16 02:07:00,
2013-05-15 21:12:00,60.0,42.0,-100.00,SW,230,0.0,4.0,51,0.00,,,0.00,1.000000,,2013-05-16 02:12:00,
2013-05-15 22:07:00,60.0,42.0,-100.00,SW,230,0.0,4.0,51,0.00,,,0.00,1.000000,,2013-05-16 03:07:00,
2013-05-15 22:12:00,56.0,42.0,-100.00,SW,216,0.0,0.0,60,0.00,,,0.00,0.000000,,2013-05-16 03:12:00,
2013-05-15 22:47:00,56.0,42.0,-100.00,SW,216,0.0,0.0,60,0.00,,,0.00,0.000000,,2013-05-16 03:47:00,
2013-05-15 22:56:00,56.0,42.0,-100.00,SW,216,0.0,0.0,60,0.00,,,0.00,0.000000,,2013-05-16 03:56:00,
2013-05-15 23:02:00,56.0,42.0,-100.00,SW,216,0.0,0.0,60,0.00,,,0.00,0.000000,,2013-05-16 04:02:00,
2013-05-15 23:12:00,54.0,43.0,-100.00,SSW,201,0.0,0.0,65,0.00,,,0.00,0.000000,,2013-05-16 04:12:00,
2013-05-15 23:42:00,54.0,43.0,-100.00,SSW,201,0.0,0.0,65,0.00,,,0.00,0.000000,,2013-05-16 04:42:00,
2013-05-15 23:53:00,54.0,43.0,-100.00,SSW,201,0.0,0.0,65,0.00,,,0.00,0.000000,,2013-05-16 04:53:00,